This is the latest recevied weather packets stored in our database for station/object GW4003. If no packets are shown the sender has not sent any weather packets the latest 10 day(s).
| Time | Temp. | Humidity | Pressure | Rain* | Wind** | Luminosity | Snow |
|---|---|---|---|---|---|---|---|
| 1777487261 | 14.44° C | 44% | 1018.9 hPa | 0 mm | - | - | - |
| 1777486957 | 14.44° C | 45% | 1019 hPa | 0 mm | - | - | - |
| 1777486653 | 13.89° C | 43% | 1019.2 hPa | 0 mm | - | - | - |
| 1777486350 | 13.89° C | 44% | 1019.2 hPa | 0 mm | - | - | - |
| 1777486046 | 14.44° C | 44% | 1019.3 hPa | 0 mm | - | - | - |
| 1777485742 | 15° C | 42% | 1019.4 hPa | 0 mm | - | - | - |
| 1777485439 | 15° C | 45% | 1019.5 hPa | 0 mm | - | - | - |
| 1777485135 | 14.44° C | 45% | 1019.6 hPa | 0 mm | - | - | - |
| 1777484831 | 13.89° C | 47% | 1019.7 hPa | 0 mm | - | - | - |
| 1777484527 | 13.33° C | 48% | 1019.7 hPa | 0 mm | - | - | - |
| 1777484224 | 13.33° C | 47% | 1019.7 hPa | 0 mm | - | - | - |
| 1777483920 | 13.89° C | 47% | 1019.7 hPa | 0 mm | - | - | - |
| 1777483617 | 13.89° C | 48% | 1019.7 hPa | 0 mm | - | - | - |
| 1777483313 | 13.33° C | 50% | 1019.8 hPa | 0 mm | - | - | - |
| 1777483009 | 13.33° C | 50% | 1019.9 hPa | 0 mm | - | - | - |
| 1777482705 | 13.89° C | 49% | 1019.8 hPa | 0 mm | - | - | - |
| 1777482402 | 13.33° C | 48% | 1019.8 hPa | 0 mm | - | - | - |
| 1777482098 | 13.89° C | 48% | 1019.8 hPa | 0 mm | - | - | - |
| 1777481795 | 13.89° C | 47% | 1019.9 hPa | 0 mm | - | - | - |
| 1777481491 | 14.44° C | 48% | 1019.9 hPa | 0 mm | - | - | - |
| 1777481188 | 13.89° C | 48% | 1019.9 hPa | 0 mm | - | - | - |
| 1777480884 | 13.89° C | 49% | 1019.9 hPa | 0 mm | - | - | - |
| 1777480580 | 13.33° C | 50% | 1020 hPa | 0 mm | - | - | - |
| 1777480277 | 12.78° C | 51% | 1020.1 hPa | 0 mm | - | - | - |
| 1777479973 | 13.33° C | 53% | 1020 hPa | 0 mm | - | - | - |
* Rain latest hour (hover to see other rain measurements)
** Current wind speed in m/s (hover to see current wind gust speed)